Location: *
(53.4003°S, 165.3236°W)
Time: 01:58:35
(UTC+00:00)

FENGYUN 3A - Pass Details

Date: 11 December 2023
Orbit: 822 x 835 km, 98.6° (Epoch: 24 February)

Event Time Altitude Azimuth Distance (km) Brightness Sun altitude
Exits shadow 12:43:37 - 5° (N) 2,589 5.7 -10.0°
Reaches altitude 10° 12:44:01 10° 5° (N) 2,438 5.6 -10.0°
Maximum altitude 12:49:23 65° 283° (WNW) 920 3.8 -9.6°
Drops below altitude 10° 12:54:49 10° 200° (SSW) 2,462 6.8 -9.3°
Sets 12:57:13 0° 197° (SSW) 3,402 7.6 -9.1°
